Dewpoint
27 25 25 28 33 37 39 41 42 45 45 44 43 39 37 37 39 44 45 45 45 46 46 46 46 46 46 46 46 46 45 44 45 43 43 42 47 46 43 45 45 44 46
22 23 24 30 33 35 39 41 43 45 45 45 43 40 39 37 41 45 45 45 46 47 47 47 47 48 47 46 47 46 46 43 44 44 43 40 41 41 43 43 45 45 47
24 22 22 27 36 38 39 41 43 45 45 45 43 41 40 42 40 43 44 45 46 47 49 49 49 48 49 47 48 47 47 44 44 45 44 40 39 42 41 42 44 46 46
30 28 25 29 36 39 42 42 43 45 45 45 43 40 38 39 38 42 45 45 45 46 48 49 49 49 49 49 48 47 47 46 43 45 45 46 45 42 40 42 42 45 45
30 32 33 34 37 40 42 43 43 44 45 45 43 41 39 40 40 41 44 44 45 46 46 48 48 48 49 49 49 48 46 46 45 45 45 45 45 45 44 41 42 44 43
30 31 33 36 37 40 42 43 43 44 45 45 44 42 41 41 40 38 43 44 45 45 45 46 47 47 47 47 48 48 46 46 46 46 46 46 44 44 44 43 43 43 43
29 30 31 33 34 36 38 39 41 41 42 43 43 43 42 42 41 39 40 44 44 45 46 46 46 46 46 47 47 48 48 45 46 46 46 46 46 47 47 46 44 43 43
29 30 30 32 32 33 36 39 38 38 39 40 42 43 43 42 41 40 39 43 44 45 47 47 47 47 46 46 46 47 47 45 44 45 46 46 47 47 48 47 46 43 42
27 28 29 31 33 35 36 37 37 37 38 39 40 42 42 41 41 41 40 42 45 45 46 46 46 46 46 46 46 46 45 44 44 44 44 45 45 46 46 48 47 47 42
27 29 30 32 34 35 36 37 37 37 38 39 39 39 39 40 40 40 39 40 43 45 45 45 45 45 45 45 45 44 44 43 42 43 43 43 45 45 45 46 46 47 47
28 27 27 27 28 28 29 30 33 34 35 36 37 39 39 39 39 39 39 39 40 43 44 45 43 44 44 44 43 43 43 43 42 42 41 42 43 43 44 44 44 43 44
26 25 26 26 26 27 27 27 28 30 34 35 36 37 38 39 38 38 39 39 39 40 43 45 43 43 44 43 42 42 42 42 41 41 40 41 42 43 43 43 43 42 42
25 24 25 25 25 25 26 27 27 29 32 32 34 34 34 37 37 38 39 39 39 40 41 44 43 42 42 42 42 41 41 41 41 40 40 40 40 41 42 41 42 41 41
24 25 25 25 25 26 26 27 28 29 30 30 32 32 32 34 36 38 39 39 39 40 40 41 43 43 42 42 41 41 40 40 40 40 41 41 41 41 41 41 40 38 39
25 24 25 25 25 25 26 27 28 29 29 29 30 31 31 33 35 38 39 40 40 40 40 40 42 43 43 42 41 41 41 40 39 39 40 40 41 43 43 42 41 40 40
23 23 23 24 24 25 25 26 27 27 29 28 29 30 31 33 35 37 38 38 39 39 40 40 40 40 41 41 42 42 40 40 39 39 38 38 39 40 42 43 44 42 42
23 23 24 25 26 26 27 26 26 27 27 28 28 29 30 32 33 35 35 36 37 38 38 38 38 38 38 40 42 43 41 40 39 39 39 38 38 38 37 39 43 43 42
22 23 24 25 25 26 26 26 26 27 28 28 28 28 29 31 33 34 35 35 36 36 36 36 36 36 36 38 40 41 40 39 38 39 39 38 38 38 38 36 36 38 40
24 25 26 27 27 27 28 29 28 27 27 28 28 29 29 30 31 31 32 33 34 34 34 34 34 34 34 35 37 38 36 36 37 37 38 38 38 38 39 38 36 36 37
27 27 28 28 29 29 29 29 30 30 29 28 29 30 31 30 29 30 30 32 32 32 32 32 33 33 33 34 35 36 35 35 35 35 35 37 38 37 39 37 35 34 35
27 26 25 25 25 27 27 26 26 29 31 30 29 30 31 31 30 31 32 32 32 32 31 31 31 31 32 32 34 35 35 35 35 34 34 34 36 37 39 39 37 36 36
24 24 25 24 25 26 26 25 25 27 30 31 30 30 30 31 31 33 33 32 32 32 32 31 31 31 32 33 33 35 36 36 35 35 35 35 36 36 37 37 38 39 39
22 23 24 24 22 23 24 24 24 27 27 29 30 29 29 29 31 31 31 30 30 30 31 32 32 33 33 33 34 35 36 37 37 36 37 38 38 38 37 37 38 39 38
22 22 21 19 18 20 22 22 24 27 28 28 30 30 30 30 29 30 30 29 29 30 31 32 32 33 34 34 35 35 35 34 34 34 34 35 37 38 38 37 37 37 37
21 20 20 20 20 21 22 22 24 27 28 28 28 29 30 31 30 30 29 29 30 32 32 33 34 33 33 33 36 37 36 36 36 37 36 35 34 33 34 35 36 36 36
18 19 20 20 20 21 21 22 25 26 28 28 29 29 30 29 30 30 30 32 33 33 34 35 35 34 36 37 38 37 37 37 37 36 35 34 34 34 34 34 34 34 34
Wind_Speed
6 6 7 8 8 8 7 6 5 3 3 3 3 3 4 5 5 5 6 6 6 6 7 6 6 5 5 6 7 8 9 10 11 11 8 3 2 1 5 6 7 8 7
8 7 7 5 6 7 8 7 6 4 3 3 2 3 4 5 6 6 6 5 6 5 6 6 6 6 7 6 6 7 9 8 9 9 7 5 2 6 1 6 8 10 9
6 6 5 6 4 6 7 7 5 4 4 5 3 3 4 5 6 4 5 4 5 5 6 6 7 6 6 6 6 6 7 8 7 7 5 4 4 12 2 7 9 12 10
5 4 1 2 3 4 5 5 5 5 6 6 5 6 7 8 6 7 6 7 6 5 4 6 7 8 7 7 6 6 7 6 7 5 3 4 6 3 7 9 9 12 8
5 7 5 2 2 3 4 5 5 7 7 7 8 8 8 7 7 6 7 6 6 6 6 6 7 7 7 7 8 7 7 6 6 6 5 4 4 5 3 11 15 15 9
5 4 3 2 1 2 4 5 6 7 6 8 10 11 12 10 9 8 8 6 5 5 6 7 8 8 8 7 7 6 7 8 6 5 5 5 3 4 4 8 13 14 10
4 4 4 3 4 5 6 6 5 6 5 8 10 12 13 12 11 10 9 8 7 6 5 6 8 8 8 8 7 6 7 8 7 6 6 6 6 6 7 9 12 9 15
6 5 6 6 7 8 7 7 7 8 8 9 11 11 12 11 11 10 10 9 9 8 7 8 8 9 9 9 8 7 7 7 7 8 7 6 7 6 5 5 7 11 11
7 8 8 7 9 9 8 7 9 11 12 12 11 11 11 12 12 11 11 10 10 9 9 9 8 8 8 9 9 9 9 7 6 8 9 8 8 7 7 7 7 7 8
9 9 9 9 8 8 8 7 7 10 11 10 10 10 11 11 12 11 13 12 11 10 11 10 9 8 8 8 8 9 9 9 8 7 9 10 9 8 7 8 9 8 9
6 8 9 8 8 9 10 9 9 10 10 9 9 10 10 10 11 12 13 13 12 11 11 11 10 9 8 8 8 9 10 10 9 9 9 10 10 9 8 8 9 10 9
3 5 7 9 10 11 11 12 12 11 10 11 11 10 11 10 12 14 14 13 13 12 12 11 11 10 10 10 10 10 10 10 10 9 9 10 9 10 10 8 9 9 10
1 5 8 10 11 12 12 13 13 13 12 12 12 12 11 11 12 13 13 13 13 14 13 13 13 13 12 11 11 12 11 11 12 11 11 10 10 11 10 10 10 10 10
0 7 10 11 12 12 13 14 15 14 14 14 13 14 13 13 13 12 12 13 14 14 14 14 14 13 13 12 12 13 13 13 13 12 12 12 12 11 11 11 12 11 11
3 9 11 12 12 13 14 14 14 15 15 16 15 14 15 14 13 12 12 12 13 13 13 13 14 14 14 14 14 14 14 14 15 14 13 13 13 10 11 11 12 12 12
5 8 10 11 12 14 14 14 14 15 14 14 15 14 14 14 13 12 11 11 12 12 12 14 14 15 14 15 16 17 15 15 16 16 15 14 13 15 15 15 15 14 14
6 8 10 10 12 13 13 14 15 14 13 13 13 13 14 14 13 12 12 12 11 11 13 14 14 15 15 14 15 17 16 17 17 17 16 15 13 13 14 14 15 16 17
5 6 8 10 10 11 11 12 12 13 13 13 14 14 14 15 14 12 11 11 11 12 12 12 13 15 16 15 17 18 17 18 19 19 18 17 17 15 14 13 14 15 15
5 6 6 8 8 9 11 13 13 13 13 15 16 16 15 15 14 13 13 11 10 10 11 12 13 14 16 13 15 14 15 17 19 19 18 18 18 17 13 15 16 16 17
2 4 7 7 8 10 11 12 13 14 15 16 16 15 14 13 13 14 14 12 11 13 12 14 14 14 16 15 14 14 14 17 17 17 18 18 22 19 15 17 17 18 17
5 6 7 7 8 9 10 12 13 14 15 15 15 14 13 13 12 13 13 13 13 13 14 15 14 14 14 15 14 15 15 16 16 16 15 15 15 18 20 20 18 19 13
4 6 7 9 9 9 10 12 12 13 14 15 15 14 14 13 11 12 12 12 12 13 13 14 14 11 11 10 12 14 16 16 16 17 16 15 13 14 17 17 21 21 16
6 6 7 9 9 10 10 12 13 14 15 15 16 15 14 13 13 13 13 13 12 12 13 12 13 12 9 10 9 11 13 14 16 17 16 16 16 16 16 19 20 16 15
7 8 8 9 10 10 10 11 12 13 13 15 14 14 15 16 12 11 10 10 10 11 11 11 12 13 11 10 9 8 7 7 9 12 12 13 14 15 15 13 13 13 15
7 8 8 10 12 13 13 14 14 14 14 14 13 13 13 13 14 11 10 10 9 8 10 11 11 12 12 10 10 12 12 11 11 12 11 10 10 11 11 11 12 12 12
9 9 10 11 13 14 15 14 12 12 14 16 15 15 14 14 13 13 15 9 14 13 13 15 13 12 14 18 18 17 16 15 13 11 11 11 11 11 12 12 12 11 12
Wind_Direction
251 257 253 238 228 217 210 207 213 211 238 269 298 294 313 319 310 321 319 316 323 323 320 321 322 323 317 326 322 325 326 336 342 320 337 319 13 212 334 353 339 327 317
261 249 244 235 223 221 211 207 219 226 244 253 269 290 315 308 306 305 311 307 313 315 315 316 315 319 318 321 328 333 335 338 354 342 314 349 166 360 304 342 348 342 325
305 288 259 226 212 212 206 212 222 240 243 236 238 262 279 277 295 304 307 303 297 309 316 310 305 309 307 312 320 331 338 333 339 355 342 332 351 338 298 330 331 339 335
26 13 325 208 208 203 209 227 237 246 247 230 246 257 279 291 301 297 297 295 283 289 305 307 303 309 310 309 321 321 326 318 323 329 345 327 314 337 320 329 328 343 336
27 36 48 83 139 194 218 237 245 250 248 236 240 254 263 272 282 284 282 280 283 272 300 303 306 304 309 311 307 309 317 305 297 307 331 331 317 288 292 310 331 335 337
30 43 48 54 129 213 238 249 255 262 248 241 244 247 258 266 273 276 273 268 268 275 278 291 296 295 295 295 304 308 303 312 300 292 285 275 301 305 290 305 317 316 329
27 23 17 351 331 309 293 281 267 277 273 262 258 253 254 259 267 274 274 271 265 262 271 286 287 290 294 294 293 294 282 299 302 303 286 269 258 259 283 285 297 297 307
36 23 4 338 328 318 306 291 283 292 297 288 276 264 255 254 259 264 262 265 268 269 268 271 274 278 283 287 289 284 274 282 287 289 279 276 267 266 264 263 293 311 301
4 356 354 354 347 343 323 309 298 297 297 295 286 275 263 252 255 261 261 260 264 268 271 273 278 277 276 278 280 276 274 274 273 276 285 277 274 269 273 261 265 290 303
357 1 3 2 2 0 355 340 321 309 309 306 295 286 280 266 261 263 261 260 258 259 263 261 261 260 264 264 266 271 269 272 268 260 280 281 276 275 274 273 274 266 278
30 34 29 21 16 12 6 356 346 333 327 322 313 300 288 273 264 262 264 261 263 259 260 259 255 252 250 253 256 260 264 264 267 266 263 272 276 275 274 273 275 277 268
65 27 18 14 10 1 353 347 341 332 326 324 322 315 306 292 275 265 260 259 260 260 256 253 252 249 244 243 246 251 253 260 263 266 268 263 264 263 266 264 267 273 282
117 11 7 3 355 347 341 336 335 333 330 325 316 309 305 300 290 282 271 260 256 256 254 247 247 248 245 243 243 247 252 255 259 260 261 262 258 264 265 264 265 270 269
313 350 350 349 346 343 339 336 335 336 327 323 316 309 308 305 297 291 280 264 255 254 252 251 251 250 250 248 247 247 252 254 255 256 255 258 260 264 268 271 273 274 272
318 344 342 342 341 339 339 340 334 332 330 322 316 311 312 307 297 291 285 274 263 258 258 259 255 254 250 247 245 247 251 255 259 256 254 254 256 267 266 268 270 276 275
339 334 336 341 343 340 334 333 331 329 326 322 320 319 319 316 305 293 288 281 273 265 256 253 255 260 257 254 243 249 258 258 258 261 261 258 252 256 252 251 249 254 264
331 337 336 340 338 336 331 331 328 327 329 328 327 329 329 323 320 312 302 291 281 275 267 265 258 254 255 252 249 250 256 261 261 260 260 261 256 252 256 250 246 249 247
325 331 335 336 336 331 334 330 335 338 340 341 340 338 334 327 324 318 310 305 298 286 276 271 267 266 267 253 241 243 249 255 257 257 258 259 261 256 253 259 261 258 255
323 323 324 321 326 338 340 340 346 348 347 345 341 339 334 327 326 324 322 316 306 297 287 280 279 271 270 263 251 255 258 257 257 257 255 253 255 255 238 249 259 263 259
320 320 324 322 334 344 340 341 346 347 347 340 333 329 326 321 319 317 314 310 304 297 294 287 278 272 270 272 261 253 254 256 255 257 254 247 247 253 236 240 252 257 258
335 330 325 329 336 337 337 341 342 344 337 329 325 325 328 324 318 314 313 310 308 301 296 291 289 283 275 276 266 255 252 255 264 265 265 262 252 250 252 240 247 248 259
341 345 335 336 336 337 335 332 330 328 325 326 326 326 325 325 321 321 319 318 311 305 304 301 300 296 293 279 275 268 254 258 258 264 267 267 262 249 251 252 246 246 239
347 347 337 326 332 335 334 327 330 330 329 328 331 333 327 324 323 321 319 318 315 309 309 306 305 308 311 302 287 280 275 265 258 264 266 270 270 265 266 256 251 242 231
342 337 332 331 331 338 330 324 324 327 326 326 325 325 328 329 328 321 314 312 313 311 308 309 310 314 316 312 317 314 306 289 278 275 279 273 275 275 271 275 263 243 234
324 324 324 325 328 333 333 333 330 331 329 328 329 327 324 321 320 318 311 307 302 284 296 300 304 306 308 312 310 303 301 297 290 291 280 276 269 267 260 260 254 249 241
323 324 325 325 326 325 322 323 323 323 325 327 330 329 326 322 318 314 313 276 262 277 272 269 267 284 274 284 291 292 289 286 287 283 273 271 274 275 277 272 267 253 246